Location: Mount Airy
(36.4990°N, 80.6080°W)
Time: 14:06:55
(UTC-04:00)

Hubble Space Telescope - Visible Passes

Search period start: 22 July 2018 00:00
Search period end: 01 August 2018 00:00
Orbit: 537 x 541 km, 28.5° (Epoch: 21 July)

Date Brightness Start Highest point End Pass type
(mag) Time Alt. Az. Time Alt. Az. Time Alt. Az.
22 Jul 2.1 04:53:17 22° S 04:53:17 22° S 04:56:27 10° SE visible
23 Jul 2.5 04:44:00 18° S 04:44:00 18° S 04:45:49 10° SE visible
24 Jul 3.2 04:34:54 11° SSE 04:34:54 11° SSE 04:35:07 10° SSE visible
28 Jul 3.3 22:34:55 10° SW 22:35:06 11° SW 22:35:06 11° SW visible
29 Jul 2.7 22:24:19 10° SW 22:25:45 17° SSW 22:25:45 17° SSW visible
30 Jul 2.2 22:13:47 10° SW 22:16:15 23° SSW 22:16:15 23° SSW visible
31 Jul 1.9 22:03:17 10° SW 22:06:36 26° S 22:06:36 26° S visible
